This demonstration page uses our WeatherBlox Daily Observations layout. Learn more.

Left ArrowRight Arrow

Hourly Observations for July 5, 2022

Temp ( °F °C ) Dew Point ( °F °C ) Humidity (%) Winds ( mph kmh ) Pressure ( in mb ) Visibility ( mi km ) Precip ( " mm )
12:15 am 00:15 Clear 68 20 64 18 88 88 Calm 30.15 1021 10 16 0.00 0.00
12:35 am 00:35 Clear 70 21 64 18 83 83 WSW 3 6 30.15 1021 10 16 0.00 0.00
12:55 am 00:55 Clear 70 21 64 18 83 83 Calm 30.14 1021 10 16 0.00 0.00
1:15 am 01:15 Clear 70 21 64 18 83 83 Calm 30.14 1021 7 11 0.00 0.00
1:35 am 01:35 Clear 68 20 64 18 88 88 SW 3 6 30.13 1020 7 11 0.00 0.00
1:55 am 01:55 Clear 66 19 64 18 94 94 WSW 3 6 30.12 1020 10 16 0.00 0.00
2:15 am 02:15 Clear 68 20 63 17 83 83 Calm 30.12 1020 10 16 0.00 0.00
2:35 am 02:35 Clear 68 20 64 18 88 88 Calm 30.12 1020 10 16 0.00 0.00
2:55 am 02:55 Clear 64 18 63 17 94 94 SW 3 6 30.12 1020 10 16 0.00 0.00
3:15 am 03:15 Clear 68 20 64 18 88 88 SW 5 7 30.12 1020 10 16 0.00 0.00
3:35 am 03:35 Clear 68 20 63 17 83 83 WSW 5 7 30.12 1020 10 16 0.00 0.00
3:55 am 03:55 Clear 68 20 63 17 83 83 SSW 3 6 30.12 1020 10 16 0.00 0.00
4:15 am 04:15 Clear 70 21 63 17 78 78 S 3 6 30.11 1020 10 16 0.00 0.00
4:35 am 04:35 Clear 70 21 64 18 83 83 S 5 7 30.11 1020 10 16 0.00 0.00
4:55 am 04:55 Clear 70 21 64 18 83 83 S 3 6 30.12 1020 10 16 0.00 0.00
5:15 am 05:15 Clear 70 21 64 18 83 83 Calm 30.11 1020 10 16 0.00 0.00
5:35 am 05:35 Clear 70 21 64 18 83 83 Calm 30.11 1020 10 16 0.00 0.00
5:55 am 05:55 Sunny 68 20 64 18 88 88 Calm 30.11 1020 7 11 0.00 0.00
6:15 am 06:15 Sunny 70 21 64 18 83 83 Calm 30.10 1019 7 11 0.00 0.00
6:35 am 06:35 Sunny 70 21 66 19 88 88 S 5 7 30.10 1019 7 11 0.00 0.00
6:55 am 06:55 Partly Cloudy 70 21 68 20 94 94 S 5 7 30.10 1019 7 11 0.00 0.00
7:15 am 07:15 Mostly Cloudy 72 22 68 20 88 88 SSE 3 6 30.10 1019 10 16 0.00 0.00
7:35 am 07:35 Mostly Cloudy 72 22 68 20 88 88 S 7 11 30.10 1019 10 16 0.00 0.00
7:55 am 07:55 Partly Cloudy 72 22 68 20 88 88 S 6 9 30.09 1019 10 16 0.00 0.00
8:15 am 08:15 Partly Cloudy 72 22 68 20 88 88 S 6 9 30.09 1019 10 16 0.00 0.00
8:35 am 08:35 Mostly Cloudy 73 23 70 21 89 89 SSW 7 11 30.09 1019 10 16 0.00 0.00
8:55 am 08:55 Cloudy 73 23 70 21 89 89 S 7 11 30.08 1019 10 16 0.00 0.00
9:15 am 09:15 Cloudy 73 23 70 21 89 89 S 8 13 30.07 1018 10 16 0.00 0.00
9:35 am 09:35 Partly Cloudy 77 25 70 21 79 79 S 9 15 30.06 1018 10 16 0.00 0.00
9:55 am 09:55 Sunny 77 25 70 21 79 79 S 10 17 30.04 1017 10 16 0.00 0.00
10:15 am 10:15 Partly Cloudy 79 26 70 21 74 74 S 8 13 30.03 1017 10 16 0.00 0.00
10:35 am 10:35 Sunny 81 27 72 22 74 74 SSW 9 15 30.02 1017 10 16 0.00 0.00
10:55 am 10:55 Sunny 81 27 72 22 74 74 S 9 15 30.03 1017 10 16 0.00 0.00
11:15 am 11:15 Partly Cloudy 82 28 72 22 70 70 S 10 17 30.02 1017 10 16 0.00 0.00
11:35 am 11:35 Partly Cloudy 82 28 72 22 70 70 SSW 12 19 30.01 1016 10 16 0.00 0.00
11:55 am 11:55 Partly Cloudy 82 28 73 23 74 74 SSW 10 17 30.01 1016 10 16 0.00 0.00
12:35 pm 12:35 Mostly Cloudy 81 27 73 23 79 79 SW 8 13 30.00 1016 10 16 0.00 0.00
12:55 pm 12:55 Cloudy with Nearby Thunderstorms 79 26 73 23 84 84 SW 8 13 30.00 1016 7 11 0.00 0.00
1:15 pm 13:15 Cloudy 77 25 73 23 89 89 SW 9 15 29.99 1016 10 16 0.01 0.25
1:35 pm 13:35 Mostly Cloudy 77 25 73 23 89 89 SW 7 11 29.98 1015 10 16 0.02 0.51
1:55 pm 13:55 Partly Cloudy 77 25 77 25 100 100 SSW 9 15 29.94 1014 10 16 0.02 0.51
2:15 pm 14:15 Partly Cloudy 79 26 75 24 89 89 SW 7 11 29.95 1014 10 16 0.00 0.00
2:35 pm 14:35 Partly Cloudy 79 26 75 24 89 89 SSW 8 13 29.94 1014 10 16 0.00 0.00
2:55 pm 14:55 Sunny 81 27 77 25 89 89 SW 9 15 29.94 1014 10 16 0.00 0.00
3:15 pm 15:15 Mostly Cloudy 82 28 77 25 84 84 SSW 10 17 29.92 1013 10 16 0.00 0.00
3:35 pm 15:35 Mostly Cloudy 82 28 75 24 79 79 SW 8 13 29.91 1013 10 16 0.00 0.00
3:55 pm 15:55 Partly Cloudy 84 29 77 25 79 79 SW 6 9 29.91 1013 10 16 0.00 0.00
4:15 pm 16:15 Sunny 86 30 77 25 75 75 SW 12 19 29.90 1012 10 16 0.00 0.00
4:35 pm 16:35 Sunny 86 30 77 25 75 75 WSW 9 15 29.90 1012 10 16 0.00 0.00
4:55 pm 16:55 Partly Cloudy 88 31 75 24 66 66 W 9 15 29.89 1012 10 16 0.00 0.00
5:15 pm 17:15 Partly Cloudy 86 30 77 25 75 75 WSW 6 9 29.89 1012 10 16 0.00 0.00
5:35 pm 17:35 Sunny 88 31 77 25 70 70 WSW 8 13 29.88 1012 10 16 0.00 0.00
5:55 pm 17:55 Sunny 88 31 77 25 70 70 SW 8 13 29.88 1012 10 16 0.00 0.00
6:15 pm 18:15 Sunny 88 31 77 25 70 70 WSW 8 13 29.88 1012 10 16 0.00 0.00
6:35 pm 18:35 Sunny 86 30 77 25 75 75 SW 5 7 29.88 1012 10 16 0.00 0.00
6:55 pm 18:55 Sunny 86 30 77 25 75 75 SW 7 11 29.88 1012 10 16 0.00 0.00
7:15 pm 19:15 Sunny 86 30 77 25 75 75 SW 6 9 29.88 1012 10 16 0.00 0.00
7:35 pm 19:35 Sunny 86 30 75 24 70 70 SW 7 11 29.88 1012 10 16 0.00 0.00
7:55 pm 19:55 Sunny 84 29 75 24 74 74 S 5 7 29.88 1012 10 16 0.00 0.00
8:15 pm 20:15 Sunny 82 28 75 24 79 79 SW 5 7 29.87 1012 10 16 0.00 0.00
8:35 pm 20:35 Sunny 82 28 75 24 79 79 WSW 3 6 29.87 1012 10 16 0.00 0.00
8:55 pm 20:55 Clear 81 27 75 24 84 84 WSW 5 7 29.87 1012 10 16 0.00 0.00
9:15 pm 21:15 Partly Cloudy 81 27 73 23 79 79 SW 3 6 29.88 1012 10 16 0.00 0.00
9:35 pm 21:35 Partly Cloudy 81 27 73 23 79 79 WSW 6 9 29.88 1012 10 16 0.00 0.00
9:55 pm 21:55 Clear 79 26 73 23 84 84 W 5 7 29.87 1012 10 16 0.00 0.00
10:15 pm 22:15 Clear 79 26 73 23 84 84 W 8 13 29.88 1012 10 16 0.00 0.00
10:35 pm 22:35 Partly Cloudy 81 27 72 22 74 74 WSW 5 7 29.88 1012 10 16 0.00 0.00
10:55 pm 22:55 Mostly Cloudy 79 26 72 22 79 79 WSW 7 11 29.87 1012 10 16 0.00 0.00
11:15 pm 23:15 Mostly Cloudy 77 25 72 22 83 83 W 5 7 29.88 1012 10 16 0.00 0.00
11:35 pm 23:35 Partly Cloudy 77 25 72 22 83 83 WSW 3 6 29.88 1012 10 16 0.00 0.00
11:55 pm 23:55 Mostly Cloudy 77 25 72 22 83 83 W 5 7 29.87 1012 10 16 0.00 0.00

Powered by AerisWeather